Time,TemperatureF,DewpointF,PressureIn,WindDirection,WindDirectionDegrees,WindSpeedMPH,WindSpeedGustMPH,Humidity,HourlyPrecipIn,Conditions,Clouds,dailyrainin,SolarRadiationWatts/m^2,SoftwareType,DateUTC
2013-03-11 00:02:00,26.0,17.0,-100.00,North,8,2.0,5.0,68,0.00,,,-99.99,0.000000,,2013-03-11 07:02:00,
2013-03-11 00:32:00,26.0,17.0,-100.00,North,8,2.0,5.0,68,0.00,,,-99.99,0.000000,,2013-03-11 07:32:00,
2013-03-11 01:02:00,26.0,15.0,-100.00,North,11,3.0,5.0,62,0.00,,,0.00,0.000000,,2013-03-11 08:02:00,
2013-03-11 01:32:00,26.0,15.0,-100.00,North,11,3.0,5.0,62,0.00,,,0.00,0.000000,,2013-03-11 08:32:00,
2013-03-11 01:52:00,25.0,15.0,-100.00,North,9,4.0,5.0,65,0.00,,,0.00,0.000000,,2013-03-11 08:52:00,
2013-03-11 02:02:00,25.0,15.0,-100.00,North,9,4.0,5.0,65,0.00,,,0.00,0.000000,,2013-03-11 09:02:00,
2013-03-11 02:32:00,25.0,15.0,-100.00,North,9,4.0,5.0,65,0.00,,,0.00,0.000000,,2013-03-11 09:32:00,
2013-03-11 03:02:00,24.0,16.0,-100.00,North,10,2.0,6.0,71,0.00,,,0.00,0.000000,,2013-03-11 10:02:00,
2013-03-11 03:32:00,24.0,16.0,-100.00,North,10,2.0,6.0,71,0.00,,,0.00,0.000000,,2013-03-11 10:32:00,
2013-03-11 04:02:00,23.0,15.0,-100.00,NNE,12,1.0,5.0,71,0.00,,,0.00,0.000000,,2013-03-11 11:02:00,
2013-03-11 04:12:00,23.0,15.0,-100.00,NNE,12,1.0,5.0,71,0.00,,,0.00,0.000000,,2013-03-11 11:12:00,
2013-03-11 04:22:00,23.0,15.0,-100.00,NNE,12,1.0,5.0,71,0.00,,,0.00,0.000000,,2013-03-11 11:22:00,
2013-03-11 04:32:00,23.0,15.0,-100.00,NNE,12,1.0,5.0,71,0.00,,,0.00,0.000000,,2013-03-11 11:32:00,
2013-03-11 05:02:00,23.0,17.0,-100.00,North,11,2.0,5.0,76,0.00,,,-99.99,0.000000,,2013-03-11 12:02:00,
2013-03-11 05:32:00,23.0,17.0,-100.00,North,11,2.0,5.0,76,0.00,,,-99.99,0.000000,,2013-03-11 12:32:00,
2013-03-11 06:02:00,22.0,16.0,-100.00,North,7,0.0,5.0,79,0.00,,,-99.99,0.000000,,2013-03-11 13:02:00,
2013-03-11 06:22:00,22.0,16.0,-100.00,North,7,0.0,5.0,79,0.00,,,-99.99,0.000000,,2013-03-11 13:22:00,
2013-03-11 06:32:00,22.0,16.0,-100.00,North,7,0.0,5.0,79,0.00,,,-99.99,0.000000,,2013-03-11 13:32:00,
2013-03-11 07:02:00,22.0,16.0,-100.00,North,8,2.0,4.0,77,0.00,,,0.00,0.000000,,2013-03-11 14:02:00,
2013-03-11 07:22:00,22.0,16.0,-100.00,North,8,2.0,4.0,77,0.00,,,0.00,0.000000,,2013-03-11 14:22:00,
2013-03-11 07:32:00,22.0,16.0,-100.00,North,8,2.0,4.0,77,0.00,,,0.00,0.000000,,2013-03-11 14:32:00,
2013-03-11 08:02:00,22.0,16.0,-100.00,North,9,3.0,4.0,77,0.00,,,0.00,4.000000,,2013-03-11 15:02:00,
2013-03-11 08:12:00,22.0,16.0,-100.00,North,9,3.0,4.0,77,0.00,,,0.00,4.000000,,2013-03-11 15:12:00,
2013-03-11 08:22:00,22.0,16.0,-100.00,North,9,3.0,4.0,77,0.00,,,0.00,4.000000,,2013-03-11 15:22:00,
2013-03-11 08:32:00,22.0,16.0,-100.00,North,9,3.0,4.0,77,0.00,,,0.00,4.000000,,2013-03-11 15:32:00,
2013-03-11 09:02:00,26.0,15.0,-100.00,NE,46,0.0,4.0,63,0.00,,,-99.99,25.000000,,2013-03-11 16:02:00,
2013-03-11 09:52:00,43.0,22.0,-100.00,South,185,0.0,0.0,43,-99.99,,,-99.99,276.000000,,2013-03-11 16:52:00,
2013-03-11 10:02:00,43.0,22.0,-100.00,South,185,0.0,0.0,43,-99.99,,,-99.99,276.000000,,2013-03-11 17:02:00,
2013-03-11 11:02:00,52.0,11.0,-100.00,South,187,2.0,5.0,19,-99.99,,,0.00,711.000000,,2013-03-11 18:02:00,
2013-03-11 11:12:00,52.0,11.0,-100.00,South,187,2.0,5.0,19,-99.99,,,0.00,711.000000,,2013-03-11 18:12:00,
2013-03-11 11:22:00,52.0,11.0,-100.00,South,187,2.0,5.0,19,-99.99,,,0.00,711.000000,,2013-03-11 18:22:00,
2013-03-11 11:32:00,52.0,11.0,-100.00,South,187,2.0,5.0,19,-99.99,,,0.00,711.000000,,2013-03-11 18:32:00,
2013-03-11 12:02:00,57.0,1.0,-100.00,SSW,201,4.0,8.0,10,0.00,,,0.00,897.000000,,2013-03-11 19:02:00,
2013-03-11 12:12:00,57.0,1.0,-100.00,SSW,201,4.0,8.0,10,0.00,,,0.00,897.000000,,2013-03-11 19:12:00,
2013-03-11 12:22:00,57.0,1.0,-100.00,SSW,201,4.0,8.0,10,0.00,,,0.00,897.000000,,2013-03-11 19:22:00,
2013-03-11 12:32:00,57.0,1.0,-100.00,SSW,201,4.0,8.0,10,0.00,,,0.00,897.000000,,2013-03-11 19:32:00,
2013-03-11 13:02:00,59.0,6.0,-100.00,South,180,3.0,8.0,12,0.00,,,0.00,1013.000000,,2013-03-11 20:02:00,
2013-03-11 13:12:00,59.0,6.0,-100.00,South,180,3.0,8.0,12,0.00,,,0.00,1013.000000,,2013-03-11 20:12:00,
2013-03-11 13:22:00,59.0,6.0,-100.00,South,180,3.0,8.0,12,0.00,,,0.00,1013.000000,,2013-03-11 20:22:00,
2013-03-11 13:32:00,59.0,6.0,-100.00,South,180,3.0,8.0,12,0.00,,,0.00,1013.000000,,2013-03-11 20:32:00,
2013-03-11 14:02:00,59.0,14.0,-100.00,South,190,5.0,10.0,17,0.00,,,0.00,1048.000000,,2013-03-11 21:02:00,
2013-03-11 14:12:00,59.0,14.0,-100.00,South,190,5.0,10.0,17,0.00,,,0.00,1048.000000,,2013-03-11 21:12:00,
2013-03-11 14:22:00,59.0,14.0,-100.00,South,190,5.0,10.0,17,0.00,,,0.00,1048.000000,,2013-03-11 21:22:00,
2013-03-11 14:32:00,59.0,14.0,-100.00,South,190,5.0,10.0,17,0.00,,,0.00,1048.000000,,2013-03-11 21:32:00,
2013-03-11 14:53:00,61.0,8.0,-100.00,SW,232,2.0,16.0,12,0.00,,,0.00,1003.000000,,2013-03-11 21:53:00,
2013-03-11 15:02:00,61.0,8.0,-100.00,SW,232,2.0,16.0,12,0.00,,,0.00,1003.000000,,2013-03-11 22:02:00,
2013-03-11 15:12:00,61.0,8.0,-100.00,SW,232,2.0,16.0,12,0.00,,,0.00,1003.000000,,2013-03-11 22:12:00,
2013-03-11 15:22:00,61.0,8.0,-100.00,SW,232,2.0,16.0,12,0.00,,,0.00,1003.000000,,2013-03-11 22:22:00,
2013-03-11 15:32:00,61.0,8.0,-100.00,SW,232,2.0,16.0,12,0.00,,,0.00,1003.000000,,2013-03-11 22:32:00,
2013-03-11 16:02:00,64.0,8.0,-100.00,NW,312,0.0,7.0,11,0.00,,,0.00,884.000000,,2013-03-11 23:02:00,
2013-03-11 17:02:00,60.0,3.0,-100.00,WSW,237,2.0,11.0,10,-99.99,,,0.00,698.000000,,2013-03-12 00:02:00,
2013-03-11 17:12:00,60.0,3.0,-100.00,WSW,237,2.0,11.0,10,-99.99,,,0.00,698.000000,,2013-03-12 00:12:00,
2013-03-11 17:22:00,60.0,3.0,-100.00,WSW,237,2.0,11.0,10,-99.99,,,0.00,698.000000,,2013-03-12 00:22:00,
2013-03-11 17:32:00,60.0,3.0,-100.00,WSW,237,2.0,11.0,10,-99.99,,,0.00,698.000000,,2013-03-12 00:32:00,
2013-03-11 18:02:00,54.0,4.0,-100.00,WNW,287,1.0,10.0,13,0.00,,,0.00,251.000000,,2013-03-12 01:02:00,
2013-03-11 18:12:00,54.0,4.0,-100.00,WNW,287,1.0,10.0,13,0.00,,,0.00,251.000000,,2013-03-12 01:12:00,
2013-03-11 18:22:00,54.0,4.0,-100.00,WNW,287,1.0,10.0,13,0.00,,,0.00,251.000000,,2013-03-12 01:22:00,
2013-03-11 18:32:00,54.0,4.0,-100.00,WNW,287,1.0,10.0,13,0.00,,,0.00,251.000000,,2013-03-12 01:32:00,
2013-03-11 19:02:00,49.0,15.0,-100.00,NNW,329,0.0,6.0,25,0.00,,,0.00,25.000000,,2013-03-12 02:02:00,
2013-03-11 19:12:00,49.0,15.0,-100.00,NNW,329,0.0,6.0,25,0.00,,,0.00,25.000000,,2013-03-12 02:12:00,
2013-03-11 19:22:00,49.0,15.0,-100.00,NNW,329,0.0,6.0,25,0.00,,,0.00,25.000000,,2013-03-12 02:22:00,
2013-03-11 19:32:00,49.0,15.0,-100.00,NNW,329,0.0,6.0,25,0.00,,,0.00,25.000000,,2013-03-12 02:32:00,
2013-03-11 20:02:00,36.0,19.0,-100.00,North,10,3.0,4.0,49,0.00,,,0.00,3.000000,,2013-03-12 03:02:00,
2013-03-11 20:12:00,36.0,19.0,-100.00,North,10,3.0,4.0,49,0.00,,,0.00,3.000000,,2013-03-12 03:12:00,
2013-03-11 20:22:00,36.0,19.0,-100.00,North,10,3.0,4.0,49,0.00,,,0.00,3.000000,,2013-03-12 03:22:00,
2013-03-11 20:32:00,36.0,19.0,-100.00,North,10,3.0,4.0,49,0.00,,,0.00,3.000000,,2013-03-12 03:32:00,
2013-03-11 21:02:00,32.0,19.0,-100.00,North,9,1.0,5.0,59,0.00,,,0.00,0.000000,,2013-03-12 04:02:00,
2013-03-11 21:12:00,32.0,19.0,-100.00,North,9,1.0,5.0,59,0.00,,,0.00,0.000000,,2013-03-12 04:12:00,
2013-03-11 21:22:00,32.0,19.0,-100.00,North,9,1.0,5.0,59,0.00,,,0.00,0.000000,,2013-03-12 04:22:00,
2013-03-11 21:32:00,32.0,19.0,-100.00,North,9,1.0,5.0,59,0.00,,,0.00,0.000000,,2013-03-12 04:32:00,
2013-03-11 22:02:00,31.0,20.0,-100.00,NNE,12,1.0,5.0,64,0.00,,,0.00,0.000000,,2013-03-12 05:02:00,
2013-03-11 22:12:00,31.0,20.0,-100.00,NNE,12,1.0,5.0,64,0.00,,,0.00,0.000000,,2013-03-12 05:12:00,
2013-03-11 22:21:00,31.0,20.0,-100.00,NNE,12,1.0,5.0,64,0.00,,,0.00,0.000000,,2013-03-12 05:21:00,
2013-03-11 22:32:00,31.0,20.0,-100.00,NNE,12,1.0,5.0,64,0.00,,,0.00,0.000000,,2013-03-12 05:32:00,
2013-03-11 23:12:00,30.0,20.0,-100.00,North,10,2.0,4.0,66,0.00,,,0.00,0.000000,,2013-03-12 06:12:00,
2013-03-11 23:22:00,30.0,20.0,-100.00,North,10,2.0,4.0,66,0.00,,,0.00,0.000000,,2013-03-12 06:22:00,
2013-03-11 23:31:00,30.0,20.0,-100.00,North,10,2.0,4.0,66,0.00,,,0.00,0.000000,,2013-03-12 06:31:00,